Location: Avoca
(45.7167°N, 74.7000°W)
Time: 13:13:11
(UTC+00:00)

N. Korean satellite - Visible Passes

Search period start: 02 December 2022 00:00
Search period end: 12 December 2022 00:00
Orbit: 421 x 453 km, 97.3° (Epoch: 01 December)

Date Brightness Start Highest point End Pass type
(mag) Time Alt. Az. Time Alt. Az. Time Alt. Az.
02 Dec 9.4 09:29:03 10° NE 09:31:23 17° E 09:33:41 10° SE visible
02 Dec 7.2 11:00:57 10° N 11:03:58 30° WNW 11:06:57 10° SW visible
03 Dec 6.4 10:21:49 10° NNE 10:25:16 84° ESE 10:28:39 10° SSW visible
03 Dec 9.7 22:27:05 10° SW 22:29:06 15° W 22:31:08 10° NW visible
04 Dec 8.7 09:43:25 10° NE 09:46:18 25° E 09:49:09 10° SSE visible
04 Dec 7.7 11:16:05 10° NNW 11:18:41 20° WNW 11:21:15 10° WSW visible
04 Dec 7.8 21:46:45 10° S 21:50:01 44° W 21:53:18 10° NNW visible
05 Dec 6.3 10:36:37 10° N 10:39:59 61° WNW 10:43:19 10° SSW visible
06 Dec 7.8 09:57:50 10° NNE 10:01:02 38° E 10:04:12 10° SSE visible
06 Dec 8.1 11:31:20 10° NNW 11:33:13 14° WNW 11:35:06 10° W visible
06 Dec 8.7 22:01:43 10° SSW 22:04:42 29° W 22:07:44 10° NW visible
07 Dec 9.7 09:20:11 10° ENE 09:21:50 13° E 09:23:29 10° ESE visible
07 Dec 6.8 10:51:21 10° N 10:54:32 39° WNW 10:57:41 10° SW visible
08 Dec 6.9 10:12:14 10° NNE 10:15:36 60° E 10:18:54 10° S visible
08 Dec 9.5 22:16:44 10° SW 22:19:17 20° W 22:21:51 10° NW visible
09 Dec 9.1 09:33:55 10° NE 09:36:25 19° E 09:38:52 10° SE visible
09 Dec 7.3 11:06:03 10° NNW 11:08:55 26° WNW 11:11:45 10° SW visible
10 Dec 6.2 10:26:36 10° NNE 10:29:59 85° WNW 10:33:19 10° SSW visible
10 Dec 9.8 22:31:59 10° WSW 22:33:45 13° W 22:35:30 10° WNW visible
11 Dec 8.4 09:47:51 10° NE 09:50:48 28° E 09:53:43 10° SSE visible
11 Dec 7.8 11:20:44 10° NNW 11:23:07 18° WNW 11:25:29 10° WSW visible
11 Dec 8.1 21:51:12 10° S 21:54:23 39° W 21:57:38 10° NNW visible
